AEROCUBE 12B (43557 NORAD) Tracking and Keplerian Element Data

This shows tracking and keplerian element data for the satellite.

Feedback or suggestion? Click here.




ElementValue
Catalog43557
NameAEROCUBE 12B
Epoch Orbit17753
Epoch Day261.94384343
Epoch Year2021
RAAN60.9545
Inclination51.64
Eccentricity0.0008164
Argument of Perigee136.0499
Mean Anonmoly224.1132
Mean Motion15.31714576
Decay Rate2.563E-05
L11 43557U 18046D 21261.94384343 .00002563 00000-0 94274-4 0 9999
L22 43557 51.6400 60.9545 0008164 136.0499 224.1132 15.31714576177530

Live tracking and technical data element details for AEROCUBE 12B (NORAD 43557). AEROCUBE 12B can be tracked NOW for your location showing map with azimuth and elevation plus other details from your city location.

Track the satellite on the map from your city or location and see movement details for azimuth, elevation, latitude, longitude, range, height, and movement on the map or in text.







IsCatalogInMostPopularTable: catalog: 43557, numindb: 571
Update: records affected: 1



GetName: 43557 AEROCUBE 12B

Hit Count: updated at: Sat, 25 Sep 2021 23:36:11 GMT